When you browse on this site, cookies collect data to enhance your experience and personalize the content and advertising you see.
Visit our Privacy Policy to learn more. By continuing to use the site, you agree to this use of cookies and data.
  • In Romania
  • List of Countries
  • For 7 days
  • Water Temperature
  • Satellite Maps
  • Weather Map
  • Weather Widgets
  • user-avatar
    Login

    Hourly Weather Trujillo

    Today, 17 January, Thursday

    Time Temperature Precipitation Wind Pressure Humidity
    00:00 +18°C° 0 mm 1 mps 648 mmHg 77%
    01:00 +18°C° 0 mm 1 mps 648 mmHg 77%
    02:00 +18°C° 0 mm 1 mps 648 mmHg 77%
    03:00 +18°C° 0 mm 1 mps 648 mmHg 76%
    04:00 +18°C° 0 mm 1 mps 648 mmHg 76%
    05:00 +18°C° 0 mm 1 mps 648 mmHg 76%
    06:00 +19°C° 0 mm 1 mps 649 mmHg 76%
    07:00 +19°C° 0 mm 1 mps 649 mmHg 77%
    08:00 +22°C° 0 mm 1 mps 650 mmHg 70%
    09:00 +24°C° 0 mm 1 mps 651 mmHg 63%
    10:00 +26°C° 0 mm 1 mps 652 mmHg 56%
    11:00 +26°C° 0.1 mm 1 mps 651 mmHg 55%
    12:00 +27°C° 0.1 mm 1 mps 651 mmHg 53%
    13:00 +27°C° 0.1 mm 1 mps 650 mmHg 52%
    14:00 +26°C° 0.1 mm 1 mps 649 mmHg 55%
    15:00 +25°C° 0.1 mm 1 mps 648 mmHg 58%
    16:00 +25°C° 0.1 mm 1 mps 648 mmHg 62%
    17:00 +23°C° 0 mm 1 mps 647 mmHg 69%
    18:00 +21°C° 0 mm 1 mps 647 mmHg 76%
    19:00 +20°C° 0 mm 1 mps 647 mmHg 83%
    20:00 +19°C° 0 mm 1 mps 647 mmHg 82%
    21:00 +19°C° 0 mm 1 mps 647 mmHg 81%
    22:00 +19°C° 0 mm 1 mps 648 mmHg 80%
    23:00 +19°C° 0 mm 1 mps 648 mmHg 79%

    Tomorrow, 18 January, Friday

    Time Temperature Precipitation Wind Pressure Humidity
    00:00 +18°C° 0 mm 1 mps 647 mmHg 78%
    01:00 +18°C° 0 mm 1 mps 647 mmHg 76%
    02:00 +18°C° 0 mm 1 mps 647 mmHg 77%
    03:00 +18°C° 0 mm 1 mps 647 mmHg 78%
    04:00 +18°C° 0 mm 1 mps 647 mmHg 78%
    05:00 +19°C° 0 mm 1 mps 647 mmHg 78%
    06:00 +19°C° 0 mm 1 mps 648 mmHg 78%
    07:00 +19°C° 0 mm 1 mps 648 mmHg 78%
    08:00 +22°C° 0 mm 1 mps 649 mmHg 68%
    09:00 +25°C° 0 mm 1 mps 650 mmHg 58%
    10:00 +28°C° 0 mm 1 mps 651 mmHg 48%
    11:00 +28°C° 0 mm 1 mps 650 mmHg 47%
    12:00 +29°C° 0 mm 1 mps 650 mmHg 46%
    13:00 +29°C° 0 mm 1 mps 649 mmHg 44%
    14:00 +27°C° 0.2 mm 1 mps 648 mmHg 52%
    15:00 +26°C° 0.2 mm 1 mps 647 mmHg 59%
    16:00 +24°C° 0.2 mm 1 mps 646 mmHg 66%
    17:00 +23°C° 0.1 mm 1 mps 646 mmHg 73%
    18:00 +21°C° 0.1 mm 1 mps 646 mmHg 80%
    19:00 +19°C° 0.1 mm 1 mps 646 mmHg 86%
    20:00 +19°C° 0 mm 1 mps 646 mmHg 84%
    21:00 +19°C° 0 mm 1 mps 647 mmHg 81%
    22:00 +18°C° 0 mm 1 mps 647 mmHg 79%
    23:00 +18°C° 0 mm 1 mps 647 mmHg 77%

    Day after tomorrow, 19 January, Saturday

    Time Temperature Precipitation Wind Pressure Humidity
    00:00 +18°C° 0 mm 1 mps 647 mmHg 75%
    01:00 +18°C° 0 mm 1 mps 647 mmHg 74%
    02:00 +18°C° 0 mm 1 mps 646 mmHg 75%
    03:00 +18°C° 0 mm 1 mps 646 mmHg 76%
    04:00 +18°C° 0 mm 1 mps 646 mmHg 77%
    05:00 +18°C° 0 mm 1 mps 647 mmHg 77%
    06:00 +19°C° 0 mm 1 mps 648 mmHg 77%
    07:00 +19°C° 0 mm 1 mps 648 mmHg 76%
    08:00 +22°C° 0 mm 1 mps 649 mmHg 66%
    09:00 +25°C° 0 mm 1 mps 650 mmHg 55%
    10:00 +28°C° 0 mm 1 mps 651 mmHg 45%
    11:00 +29°C° 0 mm 1 mps 651 mmHg 43%
    12:00 +29°C° 0 mm 1 mps 650 mmHg 41%
    13:00 +30°C° 0 mm 1 mps 649 mmHg 40%
    14:00 +29°C° 0 mm 1 mps 648 mmHg 45%
    15:00 +27°C° 0 mm 1 mps 647 mmHg 50%
    16:00 +26°C° 0 mm 1 mps 647 mmHg 55%
    17:00 +24°C° 0 mm 1 mps 646 mmHg 64%
    18:00 +22°C° 0 mm 1 mps 646 mmHg 73%
    19:00 +20°C° 0 mm 1 mps 646 mmHg 83%
    20:00 +19°C° 0 mm 1 mps 646 mmHg 80%
    21:00 +19°C° 0 mm 1 mps 647 mmHg 78%
    22:00 +19°C° 0 mm 1 mps 647 mmHg 76%
    23:00 +19°C° 0 mm 1 mps 647 mmHg 73%

    20 January, Sunday

    Time Temperature Precipitation Wind Pressure Humidity
    00:00 +18°C° 0 mm 1 mps 647 mmHg 70%
    01:00 +18°C° 0 mm 1 mps 646 mmHg 67%
    02:00 +18°C° 0 mm 1 mps 646 mmHg 68%
    03:00 +18°C° 0 mm 1 mps 646 mmHg 68%
    04:00 +18°C° 0 mm 1 mps 646 mmHg 69%
    05:00 +18°C° 0 mm 1 mps 647 mmHg 69%
    06:00 +19°C° 0 mm 1 mps 647 mmHg 69%
    07:00 +19°C° 0 mm 1 mps 648 mmHg 69%
    08:00 +22°C° 0 mm 1 mps 649 mmHg 62%
    09:00 +25°C° 0 mm 1 mps 650 mmHg 55%
    10:00 +27°C° 0 mm 1 mps 651 mmHg 49%
    11:00 +28°C° 0 mm 1 mps 651 mmHg 47%
    12:00 +29°C° 0 mm 1 mps 650 mmHg 46%
    13:00 +29°C° 0 mm 1 mps 649 mmHg 45%
    14:00 +28°C° 0 mm 1 mps 649 mmHg 49%
    15:00 +27°C° 0 mm 1 mps 648 mmHg 54%
    16:00 +26°C° 0 mm 1 mps 647 mmHg 58%
    17:00 +24°C° 0 mm 1 mps 647 mmHg 66%
    18:00 +22°C° 0 mm 1 mps 647 mmHg 74%
    19:00 +18°C° 0 mm 0 mps 647 mmHg 83%
    20:00 +20°C° 0 mm 1 mps 647 mmHg 82%
    21:00 +20°C° 0 mm 1 mps 647 mmHg 82%
    22:00 +19°C° 0 mm 1 mps 648 mmHg 81%
    23:00 +19°C° 0 mm 1 mps 647 mmHg 80%

    21 January, Monday

    Time Temperature Precipitation Wind Pressure Humidity
    00:00 +19°C° 0 mm 1 mps 647 mmHg 79%
    01:00 +19°C° 0 mm 1 mps 647 mmHg 78%
    02:00 +18°C° 0 mm 1 mps 647 mmHg 77%
    03:00 +18°C° 0 mm 1 mps 647 mmHg 77%
    04:00 +18°C° 0 mm 1 mps 646 mmHg 76%
    05:00 +18°C° 0 mm 1 mps 647 mmHg 74%
    06:00 +19°C° 0 mm 1 mps 648 mmHg 72%
    07:00 +20°C° 0 mm 1 mps 649 mmHg 69%
    08:00 +22°C° 0 mm 1 mps 650 mmHg 64%
    09:00 +24°C° 0 mm 1 mps 651 mmHg 58%
    10:00 +26°C° 0 mm 1 mps 652 mmHg 52%
    11:00 +27°C° 0 mm 1 mps 651 mmHg 52%
    12:00 +27°C° 0 mm 1 mps 650 mmHg 52%
    13:00 +27°C° 0 mm 1 mps 649 mmHg 52%
    14:00 +26°C° 0.1 mm 1 mps 648 mmHg 57%
    15:00 +25°C° 0.1 mm 1 mps 648 mmHg 62%
    16:00 +24°C° 0.1 mm 1 mps 647 mmHg 67%
    17:00 +23°C° 0.1 mm 1 mps 647 mmHg 72%
    18:00 +21°C° 0.1 mm 1 mps 647 mmHg 78%
    19:00 +18°C° 0.1 mm 0 mps 647 mmHg 84%
    20:00 +20°C° 0 mm 1 mps 647 mmHg 83%
    21:00 +20°C° 0 mm 1 mps 648 mmHg 82%
    22:00 +20°C° 0 mm 1 mps 648 mmHg 81%
    23:00 +19°C° 0 mm 1 mps 648 mmHg 80%

    22 January, Tuesday

    Time Temperature Precipitation Wind Pressure Humidity
    00:00 +19°C° 0 mm 1 mps 648 mmHg 80%
    01:00 +18°C° 0 mm 1 mps 647 mmHg 79%
    02:00 +18°C° 0 mm 1 mps 647 mmHg 79%
    03:00 +18°C° 0 mm 1 mps 647 mmHg 78%
    04:00 +18°C° 0 mm 1 mps 647 mmHg 78%
    05:00 +18°C° 0 mm 1 mps 647 mmHg 76%
    06:00 +19°C° 0 mm 1 mps 648 mmHg 75%
    07:00 +19°C° 0 mm 1 mps 649 mmHg 74%
    08:00 +22°C° 0 mm 1 mps 650 mmHg 65%
    09:00 +25°C° 0 mm 1 mps 651 mmHg 56%
    10:00 +27°C° 0 mm 1 mps 652 mmHg 47%
    11:00 +28°C° 0 mm 1 mps 651 mmHg 45%
    12:00 +29°C° 0 mm 1 mps 651 mmHg 43%
    13:00 +30°C° 0 mm 1 mps 650 mmHg 41%
    14:00 +28°C° 0 mm 1 mps 649 mmHg 46%
    15:00 +27°C° 0 mm 1 mps 648 mmHg 52%
    16:00 +25°C° 0 mm 1 mps 647 mmHg 58%
    17:00 +23°C° 0 mm 1 mps 647 mmHg 66%
    18:00 +21°C° 0 mm 1 mps 647 mmHg 74%
    19:00 +19°C° 0 mm 1 mps 647 mmHg 83%
    20:00 +19°C° 0 mm 1 mps 647 mmHg 80%
    21:00 +19°C° 0 mm 1 mps 647 mmHg 76%
    22:00 +19°C° 0 mm 1 mps 648 mmHg 73%
    23:00 +18°C° 0 mm 1 mps 648 mmHg 71%
    Show more